Regional Weather Roundup
Issued by NWS

Home | Current Version | Previous Version | Graphics & Text | Print | Product List | Glossary On
Versions: 1 2 3 4 5 6 7 8 9 10 11 12 13 14 15 16 17 18 19 20 21 22 23 24 25 26 27 28 29 30 31 32 33 34 35 36 37 38 39 40 41 42 43 44 45 46 47 48 49 50
000
ASUS43 KOAX 111510
RWRNE

WEATHER ROUNDUP FOR NEBRASKA
NATIONAL WEATHER SERVICE OMAHA NE
900 AM CST THU FEB 11 2016

NOTES: SATELLITE DATA IS BEING USED TO AUGMENT CLOUD COVER ABOVE
       12000 FEET.
       "FAIR" INDICATES FEW OR NO CLOUDS BELOW 12,000 FEET WITH NO
       SIGNIFICANT WEATHER AND/OR OBSTRUCTIONS TO VISIBILITY.

  * THESE STATIONS DO NOT REPORT WEATHER SUCH AS RAIN...SNOW OR FOG.

NEZ001>004-019>022-054>056-111600-
NEBRASKA PANHANDLE

CITY           SKY/WX    TMP DP  RH WIND       PRES   REMARKS
SCOTTSBLUFF    PTSUNNY   36  26  67 NW8       30.08R WCI  30
ALLIANCE       CLOUDY    34  28  79 W9        30.04R WCI  27
CHADRON        CLOUDY    33  28  81 W7        30.04R WCI  27
KIMBALL        CLOUDY    39  25  55 W13       30.09F WCI  32
SIDNEY         CLOUDY    41  25  53 W13       30.09S
$$

NEZ057>060-069>072-079>082-111600-
SOUTHWEST NEBRASKA

CITY           SKY/WX    TMP DP  RH WIND       PRES   REMARKS
NORTH PLATTE   PTSUNNY   27  24  89 S8        30.13F WCI  19
IMPERIAL       CLOUDY    28  23  81 SW6       30.11F WCI  22
LEXINGTON      CLOUDY    30  28  91 S6        30.18R FOG     WCI  24
MCCOOK         FOG       25  24  96 S8        30.16F VSB<1/4 WCI  16
OGALLALA       PTSUNNY   30  26  88 W3        30.08F
$$

NEZ005>010-023>029-035>040-094-111600-
NORTH CENTRAL NEBRASKA

CITY           SKY/WX    TMP DP  RH WIND       PRES   REMARKS
VALENTINE      CLOUDY    29  28  96 SE7       30.08F FOG     WCI  22
AINSWORTH      CLOUDY    28  28  96 SE7       30.10S FOG     WCI  21
BROKEN BOW     CLOUDY    30  28  92 S7        30.14S WCI  23
O`NEILL        CLOUDY    24  23  94 SE7       30.17R WCI  16
ORD            CLOUDY    26  24  92 SE8       30.16F FOG     WCI  18
THEDFORD       CLOUDY    30  30  99 S9        30.09S FOG     WCI  22
$$

NEZ041-046>049-061>064-073>077-083>087-111600-
SOUTH CENTRAL NEBRASKA

CITY           SKY/WX    TMP DP  RH WIND       PRES   REMARKS
GRAND ISLAND   CLOUDY    24  22  91 SE8       30.23S FOG     WCI  15
AURORA         CLOUDY    24  22  94 SE8       30.23S FOG     WCI  14
HASTINGS       CLOUDY    26  22  84 SE7       30.22R FOG     WCI  18
HEBRON         CLOUDY    22  19  88 E6        30.27S WCI  15
HOLDREGE       CLOUDY    28  26  92 SE6       30.19F WCI  22
KEARNEY *      CLOUDY    28  25  86 SE7       30.20S WCI  21
YORK           CLOUDY    21  19  93 SE7       30.25S WCI  13
$$

NEZ011>018-030>034-042>045-111600-
NORTHEAST NEBRASKA

CITY           SKY/WX    TMP DP  RH WIND       PRES   REMARKS
NORFOLK        CLOUDY    19  15  84 SE10      30.22F WCI   7
ALBION         CLOUDY    21  19  91 SE8       30.20F FOG     WCI  12
BLAIR          CLOUDY    15   5  64 E7        30.28S WCI   6
COLUMBUS *     CLOUDY    18   9  68 E7        30.26R WCI   8
FREMONT        CLOUDY    17   7  65 E5        30.28F WCI   9
TEKAMAH        CLOUDY    16   6  65 SE8       30.32R WCI   5
WAYNE          CLOUDY    16  11  80 SE9       30.26S WCI   5
$$

NEZ050>053-065>068-078-088>093-111600-
SOUTHEAST NEBRASKA

CITY           SKY/WX    TMP DP  RH WIND       PRES   REMARKS
LINCOLN        CLOUDY    19  15  84 E6        30.30S WCI  11
OMAHA EPPLEY   CLOUDY    15   4  61 E7        30.31F WCI   5
BEATRICE       CLOUDY    20  19  93 E6        30.29S FOG     WCI  13
FALLS CITY     PTSUNNY   21  16  81 NE6       30.32R WCI  13
NEBRASKA CITY  CLOUDY    20  13  76 E6        30.31R WCI  12
PLATTSMOUTH    CLOUDY    16  10  77 E5        30.30S WCI   9
$$

NEZ044-045-051>053-067-111600-
OMAHA AREA

CITY           SKY/WX    TMP DP  RH WIND       PRES   REMARKS
OMAHA EPPLEY   CLOUDY    15   4  61 E7        30.31F WCI   5
BLAIR          CLOUDY    15   5  64 E7        30.28S WCI   6
FREMONT        CLOUDY    17   7  65 E5        30.28F WCI   9
MILLARD        CLOUDY    18   3  53 SE6       30.30F WCI   9
OFFUTT AFB     CLOUDY    16   6  64 E6        30.30F WCI   8
PLATTSMOUTH    CLOUDY    16  10  77 E5        30.30S WCI   9
WAHOO          CLOUDY    18  11  74 SE7       30.28F WCI   8
$$



USA.gov is the U.S. government's official web portal to all federal, state and local government web resources and services.